Lorentz, WV

12:05 AM EDT on August 30, 2016 (GMT -0400)
Buckhannon

Weather History for KW22 - March, 2013

Change the Weather History Date:

Friday, March 22, 2013

  Actual Average (KEKN) Record (KEKN)
Temperature  
Mean Temperature 31 °F 42 °F  
Max Temperature 39 °F 54 °F 83 °F (1907)
Min Temperature 23 °F 30 °F 6 °F (1986)
Degree Days  
Heating Degree Days 34 23  
Month to date heating degree days 586  
Since 1 July heating degree days 4907  
Cooling Degree Days 0 0  
Month to date cooling degree days 0  
Year to date cooling degree days 0  
Moisture  
Dew Point 13 °F    
Average Humidity 50    
Maximum Humidity 63    
Minimum Humidity 33    
Precipitation  
Precipitation 0.00 in 0.12 in 1.28 in (1916)
Month to date precipitation 2.76  
Year to date precipitation 9.09  
Snow  
Snow 0.00 in - - ()
Month to date snowfall  
Since 1 September snowfall  
Snow Depth -    
Sea Level Pressure  
Sea Level Pressure 29.96 in    
Wind  
Wind Speed 9 mph (WSW)    
Max Wind Speed 17 mph    
Max Gust Speed 26 mph    
Visibility 10 miles    
Events      
T = Trace of Precipitation, MM = Missing Value Source: NWS Daily Summary

Daily Weather History Graph

Daily Weather History Graph

Search for Another Location

Airport or City:

Trip Planner

Search our weather history database for the weather conditions in past years. The results will help you decide how hot, cold, wet, or windy it might be!

Date:

Astronomy

Mar. 22, 2013 Rise Set
Actual Time 7:21 AM EDT 7:35 PM EDT
Civil Twilight 6:54 AM EDT 8:01 PM EDT
Nautical Twilight 6:23 AM EDT 8:33 PM EDT
Astronomical Twilight 5:51 AM EDT 9:05 PM EDT
Moon 3:02 PM EDT (3/22) 4:18 AM EDT (3/22)
Length of Visible Light 13h 07m
Length of Day
12h 14m
Waxing Gibbous, 77% of the Moon is Illuminated
Mar 22
Waxing Gibbous
Mar 27
Full
Apr 3
Last Quarter
Apr 10
New
Apr 18
First Quarter

Hourly Weather History & Observations

Time (EDT) Temp. Windchill Dew Point Humidity Pressure Visibility Wind Dir Wind Speed Gust Speed Precip Events Conditions
12:15 AM 23.0 °F 13.9 °F 10.4 °F 59% 29.95 in 10.0 mi SW 8.1 mph - N/A   Overcast
12:35 AM 23.0 °F 14.7 °F 10.4 °F 59% 29.95 in 10.0 mi SW 6.9 mph - N/A   Overcast
12:55 AM 23.0 °F 14.7 °F 10.4 °F 59% 29.95 in 10.0 mi SW 6.9 mph - N/A   Overcast
1:15 AM 23.0 °F 13.9 °F 10.4 °F 59% 29.95 in 10.0 mi SW 8.1 mph - N/A   Overcast
1:35 AM 23.0 °F 13.1 °F 10.4 °F 59% 29.95 in 10.0 mi SW 9.2 mph - N/A   Overcast
1:55 AM 23.0 °F 13.9 °F 10.4 °F 59% 29.95 in 10.0 mi SW 8.1 mph - N/A   Overcast
2:15 AM 23.0 °F 12.4 °F 12.2 °F 63% 29.95 in 10.0 mi SW 10.4 mph - N/A   Overcast
2:35 AM 23.0 °F 13.1 °F 12.2 °F 63% 29.95 in 10.0 mi WSW 9.2 mph - N/A   Overcast
2:55 AM 23.0 °F 11.7 °F 12.2 °F 63% 29.95 in 10.0 mi WSW 11.5 mph - N/A   Overcast
3:15 AM 23.0 °F 13.9 °F 12.2 °F 63% 29.94 in 10.0 mi SW 8.1 mph - N/A   Overcast
3:35 AM 23.0 °F 12.4 °F 12.2 °F 63% 29.94 in 10.0 mi SW 10.4 mph - N/A   Overcast
3:55 AM 23.0 °F 12.4 °F 12.2 °F 63% 29.94 in 10.0 mi SW 10.4 mph - N/A   Overcast
4:15 AM 23.0 °F 13.1 °F 12.2 °F 63% 29.94 in 10.0 mi SW 9.2 mph - N/A   Overcast
4:35 AM 23.0 °F 14.7 °F 12.2 °F 63% 29.94 in 10.0 mi SW 6.9 mph - N/A   Overcast
4:55 AM 23.0 °F 13.9 °F 12.2 °F 63% 29.94 in 10.0 mi SW 8.1 mph - N/A   Overcast
5:15 AM 23.0 °F 11.7 °F 12.2 °F 63% 29.94 in 10.0 mi SW 11.5 mph - N/A   Overcast
5:35 AM 23.0 °F 13.9 °F 12.2 °F 63% 29.94 in 10.0 mi SW 8.1 mph - N/A   Overcast
5:55 AM 23.0 °F 13.9 °F 12.2 °F 63% 29.94 in 10.0 mi SW 8.1 mph - N/A   Overcast
6:15 AM 23.0 °F 13.1 °F 12.2 °F 63% 29.95 in 10.0 mi SW 9.2 mph - N/A   Overcast
6:35 AM 23.0 °F 13.1 °F 12.2 °F 63% 29.95 in 10.0 mi SW 9.2 mph - N/A   Overcast
6:55 AM 23.0 °F 12.4 °F 12.2 °F 63% 29.95 in 10.0 mi SW 10.4 mph - N/A   Overcast
7:15 AM 23.0 °F 13.1 °F 12.2 °F 63% 29.96 in 10.0 mi SW 9.2 mph - N/A   Scattered Clouds
7:35 AM 23.0 °F 13.1 °F 12.2 °F 63% 29.96 in 10.0 mi SW 9.2 mph - N/A   Clear
7:55 AM 23.0 °F 14.7 °F 12.2 °F 63% 29.97 in 10.0 mi SW 6.9 mph - N/A   Clear
8:15 AM 23.0 °F 13.1 °F 12.2 °F 63% 29.98 in 10.0 mi SW 9.2 mph - N/A   Clear
8:35 AM 23.0 °F 13.9 °F 12.2 °F 63% 29.98 in 10.0 mi SW 8.1 mph - N/A   Clear
8:55 AM 24.8 °F 14.6 °F 12.2 °F 59% 29.99 in 10.0 mi WSW 10.4 mph - N/A   Clear
9:15 AM 26.6 °F 17.5 °F 12.2 °F 55% 29.99 in 10.0 mi WSW 9.2 mph - N/A   Clear
9:35 AM 26.6 °F 17.5 °F 12.2 °F 55% 29.99 in 10.0 mi WSW 9.2 mph - N/A   Clear
9:55 AM 26.6 °F 16.2 °F 12.2 °F 55% 29.98 in 10.0 mi SW 11.5 mph 18.4 mph N/A   Clear
10:15 AM 28.4 °F 19.1 °F 14.0 °F 55% 29.99 in 10.0 mi SW 10.4 mph - N/A   Clear
10:35 AM 30.2 °F 21.3 °F 14.0 °F 51% 29.99 in 10.0 mi SW 10.4 mph 17.3 mph N/A   Clear
10:55 AM 30.2 °F 21.3 °F 14.0 °F 51% 29.98 in 10.0 mi SW 10.4 mph - N/A   Clear
11:15 AM 30.2 °F 21.3 °F 14.0 °F 51% 29.98 in 10.0 mi WNW 10.4 mph 20.7 mph N/A   Clear
11:35 AM 30.2 °F 19.8 °F 14.0 °F 51% 29.98 in 10.0 mi WSW 13.8 mph 20.7 mph N/A   Clear
11:55 AM 32.0 °F 24.2 °F 14.0 °F 48% 29.98 in 10.0 mi West 9.2 mph 20.7 mph N/A   Clear
12:15 PM 32.0 °F 23.0 °F 14.0 °F 48% 29.98 in 10.0 mi West 11.5 mph 21.9 mph N/A   Clear
12:35 PM 32.0 °F 24.8 °F 14.0 °F 48% 29.97 in 10.0 mi SW 8.1 mph 21.9 mph N/A   Clear
12:55 PM 32.0 °F 22.5 °F 14.0 °F 48% 29.97 in 10.0 mi SW 12.7 mph 20.7 mph N/A   Clear
1:15 PM 33.8 °F 23.2 °F 14.0 °F 44% 29.96 in 10.0 mi SW 17.3 mph 21.9 mph N/A   Clear
1:35 PM 35.6 °F 27.1 °F 14.0 °F 41% 29.96 in 10.0 mi West 12.7 mph 21.9 mph N/A   Clear
1:55 PM 35.6 °F 27.1 °F 14.0 °F 41% 29.96 in 10.0 mi SW 12.7 mph 26.5 mph N/A   Clear
2:15 PM 35.6 °F 26.6 °F 14.0 °F 41% 29.95 in 10.0 mi WSW 13.8 mph 20.7 mph N/A   Clear
2:35 PM 35.6 °F 29.2 °F 12.2 °F 38% 29.95 in 10.0 mi WSW 8.1 mph 23.0 mph N/A   Clear
2:55 PM 35.6 °F 27.5 °F 14.0 °F 41% 29.94 in 10.0 mi West 11.5 mph 23.0 mph N/A   Clear
3:15 PM 35.6 °F 25.9 °F 14.0 °F 41% 29.94 in 10.0 mi SW 16.1 mph 19.6 mph N/A   Clear
3:35 PM 37.4 °F 28.2 °F 12.2 °F 36% 29.94 in 10.0 mi West 16.1 mph 20.7 mph N/A   Clear
3:55 PM 37.4 °F 29.3 °F 12.2 °F 36% 29.94 in 10.0 mi West 12.7 mph 19.6 mph N/A   Clear
4:15 PM 37.4 °F 30.3 °F 14.0 °F 38% 29.94 in 10.0 mi West 10.4 mph 20.7 mph N/A   Clear
4:35 PM 39.2 °F 33.6 °F 14.0 °F 36% 29.94 in 10.0 mi West 8.1 mph 19.6 mph N/A   Clear
4:55 PM 39.2 °F 32.5 °F 12.2 °F 33% 29.93 in 10.0 mi West 10.4 mph 18.4 mph N/A   Clear
5:15 PM 39.2 °F 31.6 °F 14.0 °F 36% 29.93 in 10.0 mi WSW 12.7 mph 19.6 mph N/A   Clear
5:35 PM 39.2 °F 31.6 °F 14.0 °F 36% 29.94 in 10.0 mi SW 12.7 mph 16.1 mph N/A   Clear
5:55 PM 37.4 °F 29.3 °F 14.0 °F 38% 29.94 in 10.0 mi WSW 12.7 mph 18.4 mph N/A   Clear
6:15 PM 37.4 °F 30.8 °F 14.0 °F 38% 29.95 in 10.0 mi WSW 9.2 mph - N/A   Clear
6:35 PM 37.4 °F 29.8 °F 14.0 °F 38% 29.94 in 10.0 mi WSW 11.5 mph - N/A   Clear
6:55 PM 35.6 °F 29.2 °F 14.0 °F 41% 29.95 in 10.0 mi West 8.1 mph 16.1 mph N/A   Clear
7:15 PM 35.6 °F 28.6 °F 14.0 °F 41% 29.96 in 10.0 mi West 9.2 mph - N/A   Clear
7:35 PM 35.6 °F 29.9 °F 14.0 °F 41% 29.96 in 10.0 mi WSW 6.9 mph - N/A   Clear
7:55 PM 33.8 °F 26.4 °F 14.0 °F 44% 29.97 in 10.0 mi West 9.2 mph - N/A   Clear
8:15 PM 33.8 °F 27.7 °F 14.0 °F 44% 29.97 in 10.0 mi WSW 6.9 mph - N/A   Clear
8:35 PM 33.8 °F 27.0 °F 14.0 °F 44% 29.98 in 10.0 mi WSW 8.1 mph - N/A   Clear
8:55 PM 33.8 °F 27.7 °F 14.0 °F 44% 29.99 in 10.0 mi West 6.9 mph - N/A   Clear
9:15 PM 33.8 °F 28.6 °F 14.0 °F 44% 29.98 in 10.0 mi West 5.8 mph - N/A   Clear
9:35 PM 33.8 °F 28.6 °F 14.0 °F 44% 29.99 in 10.0 mi WSW 5.8 mph - N/A   Clear
9:55 PM 33.8 °F 28.6 °F 12.2 °F 41% 29.99 in 10.0 mi WSW 5.8 mph - N/A   Clear
10:15 PM 33.8 °F 28.6 °F 12.2 °F 41% 30.00 in 10.0 mi WSW 5.8 mph - N/A   Clear
10:35 PM 33.8 °F 28.6 °F 12.2 °F 41% 30.01 in 10.0 mi WSW 5.8 mph - N/A   Clear
10:55 PM 33.8 °F 27.7 °F 12.2 °F 41% 30.01 in 10.0 mi WSW 6.9 mph - N/A   Clear
11:15 PM 32.0 °F 27.5 °F 12.2 °F 44% 30.00 in 10.0 mi SW 4.6 mph - N/A   Clear
11:35 PM 32.0 °F 27.5 °F 12.2 °F 44% 30.00 in 10.0 mi WSW 4.6 mph - N/A   Clear
11:55 PM 32.0 °F - 12.2 °F 44% 30.00 in 10.0 mi Calm Calm - N/A   Clear